Retour au catalogue

DELTA 1 R/B(1)

ActifLEO
NORAD 14051·ROCKET BODY·🇺🇸 United States

Lancé Apr 28, 1983 depuis Cape Canaveral Space Force Station

Loading…

Prochains Passages (prochaines 24 heures)

TLE

FraisSource: Space-Track

Époque: Sep 14, 2026, 01:07 UTC

1 14051U 83041B   26257.04673646  .00006962  00000-0  58941-3 0  9998
2 14051  25.3239 191.4516 0977165  51.7473 316.6982 13.36252308 23728

Suivez DELTA 1 R/B(1) en temps réel avec AllMySat

Download on the App Store